sat.trackr.live / text

‹ back to catalog

EXPRESS 80

NORAD 45986 · 2020-053B

PAYLOAD ACTIVE UNKNOWN

§ Identity

Operator
Country
CIS
Launch date
2020-07-30
Launch site
TYMSC
Launch vehicle
Mass (kg)
RCS (m²)

Purposes: comms

External: N2YO · Heavens-Above · Gunter

§ Orbital elements

Epoch: 2026-09-13T02:15:33.982848Z

Period
1,436.09 min
Inclination
0.0166°
Eccentricity
0.0001987
Mean motion
1.00271950 rev/d
Perigee alt
35,778.2 km
Apogee alt
35,794.9 km
Semi-major
42,164.7 km
B*
0.0000e+0
RAAN
212.3942°
Arg perigee
197.4352°
Mean anomaly
56.1656°
Rev number
2,252

§ Raw data

EXPRESS 801 45986U 20053B   26256.09414332 -.00000148  00000+0  00000+0 0  99912 45986   0.0166 212.3942 0001987 197.4352  56.1656  1.00271950 22521

JSON: /api/v1/satellites/45986 · /tle

For live sub-satellite position, see the globe view (requires WebGL).

§ Visibility from observer

Set your observer location to see the next 7 days of passes ≥ 10°. The values pass through the URL so the page stays shareable.

No JS? Fill the form by hand. The geolocation button needs JavaScript.